Probability
7 12 23 41 64 83 91 93 95 96 94 92 88 78 60 43 31 24 21 20 20 20 18 16 14 10 6 4 1 0 0 0 0 0 0 0 0 0 0 0 0 0 0
18 21 28 40 58 76 86 91 94 95 94 90 82 68 51 36 24 15 11 10 10 10 9 8 7 4 3 1 0 0 0 0 0 0 0 0 0 0 0 0 0 0 0
41 40 40 43 52 66 79 87 91 93 91 85 73 58 44 30 18 8 3 2 2 2 1 1 1 0 0 0 0 0 0 0 0 0 0 0 0 0 0 0 0 0 0
62 61 59 58 60 66 76 84 89 90 86 79 69 58 46 32 17 6 1 0 0 0 0 0 0 0 0 0 0 0 0 0 0 0 0 0 0 0 0 0 0 0 0
74 73 74 75 75 76 80 85 86 82 77 71 64 56 46 30 14 4 0 0 0 0 0 0 0 0 0 0 0 0 0 0 0 0 0 0 0 0 0 0 0 0 0
72 72 72 74 77 77 77 76 73 67 60 54 49 43 33 19 7 1 0 0 0 0 0 0 0 0 0 0 0 0 0 0 0 0 0 0 0 0 0 0 0 0 0
52 53 53 54 57 58 56 52 48 43 37 33 29 23 16 7 2 0 0 0 0 0 0 0 0 0 0 0 0 0 0 0 0 0 0 0 0 0 0 0 0 0 0
24 26 27 26 27 28 27 24 21 18 16 14 10 7 4 2 0 0 0 0 0 0 0 0 0 0 0 0 0 0 0 0 0 0 0 0 0 0 0 0 0 0 0
6 7 8 7 7 7 8 7 5 5 4 3 2 1 1 0 0 0 0 0 0 0 0 0 0 0 0 0 0 0 0 0 0 0 0 0 0 0 0 0 0 0 0
1 1 1 1 1 1 1 1 1 1 1 1 1 1 0 0 0 0 0 0 0 0 0 0 0 0 0 0 0 0 0 0 0 0 0 0 0 0 0 0 0 0 0
0 0 0 0 0 0 0 0 0 0 0 1 1 0 0 0 0 0 0 0 0 0 0 0 0 0 0 0 0 0 0 0 0 0 0 0 0 0 0 0 0 0 0
0 0 0 0 0 0 0 0 0 0 0 0 0 0 0 0 0 0 0 0 0 0 0 0 0 0 0 0 0 0 0 0 0 0 0 0 0 0 0 0 0 0 0
0 0 0 0 0 0 0 0 0 0 0 0 0 0 0 0 0 0 0 0 0 0 0 0 0 0 0 0 0 0 0 0 0 0 0 0 0 0 0 0 0 0 0
0 0 0 0 0 0 0 0 0 0 0 0 0 0 0 0 0 0 0 0 0 0 0 0 0 0 0 0 0 0 0 0 0 0 0 0 0 0 0 0 0 0 0
0 0 0 0 0 0 0 0 0 0 0 0 0 0 0 0 0 0 0 0 0 0 0 0 0 0 0 0 0 0 0 0 0 0 0 0 0 0 0 0 0 0 0
0 0 0 0 0 0 0 0 0 0 0 0 0 0 0 0 0 0 0 0 0 0 0 0 0 0 0 0 0 0 0 0 0 0 0 0 0 0 0 0 0 0 0
0 0 0 0 0 0 0 0 0 0 0 0 0 0 0 0 0 0 0 0 0 0 0 0 0 0 0 0 0 0 0 0 0 0 0 0 0 0 0 0 0 0 0
0 0 0 0 0 0 0 0 0 0 0 0 0 0 0 0 0 0 0 0 0 0 0 0 0 0 0 0 0 0 0 0 0 0 0 0 0 0 0 0 0 0 0
0 0 0 0 0 0 0 0 0 0 0 0 0 0 0 0 0 0 0 0 0 0 0 0 0 0 0 0 0 0 0 0 0 0 0 0 0 0 0 0 0 0 0
0 0 0 0 0 0 0 0 0 0 0 0 0 0 0 0 0 0 0 0 0 0 0 0 0 0 0 0 0 0 0 0 0 0 0 0 0 0 0 0 0 0 0
0 0 0 0 0 0 0 0 0 0 0 0 0 0 0 0 0 0 0 0 0 0 0 0 0 0 0 0 0 0 0 0 0 0 0 0 0 0 0 0 0 0 0
0 0 0 0 0 0 0 0 0 0 0 0 0 0 0 0 0 0 0 0 0 0 0 0 0 0 0 0 0 0 0 0 0 0 0 0 0 0 0 0 0 0 0
0 0 0 0 0 0 0 0 0 0 0 0 0 0 0 0 0 0 0 0 0 0 0 0 0 0 0 0 0 0 0 0 0 0 0 0 0 0 0 0 0 0 0
0 0 0 0 0 0 0 0 0 0 0 0 0 0 0 0 0 0 0 0 0 0 0 0 0 0 0 0 0 0 0 0 0 0 0 0 0 0 0 0 0 0 0
0 0 0 0 0 0 0 0 0 0 0 0 0 0 0 0 0 0 0 0 0 0 0 0 0 0 0 0 0 0 0 0 0 0 0 0 0 0 0 0 0 0 0
0 0 0 0 0 0 0 0 0 0 0 0 0 0 0 0 0 0 0 0 0 0 0 0 0 0 0 0 0 0 0 0 0 0 0 0 0 0 0 0 0 0 0
Wind_Speed
9 8 10 13 14 14 15 14 14 14 12 10 9 7 5 5 4 4 4 2 0 2 3 3 5 4 4 5 5 4 3 2 1 2 2 2 2 2 2 2 2 1 1
6 4 6 9 13 15 15 15 14 14 14 10 8 6 7 5 5 5 5 4 3 3 4 5 5 5 5 6 4 3 1 1 1 3 4 4 6 5 4 3 3 3 3
7 4 3 5 9 12 14 12 13 13 13 12 9 9 6 5 4 5 4 5 6 5 5 6 6 6 5 4 4 2 2 2 1 2 4 5 5 2 5 6 5 4 4
7 5 3 1 2 6 9 12 12 12 13 14 13 13 9 7 5 4 4 6 6 7 7 7 7 6 5 5 4 3 1 2 2 2 1 3 5 5 4 6 7 6 7
8 7 7 6 5 4 6 9 11 11 12 11 12 11 8 7 6 7 8 7 7 8 9 9 8 6 5 6 5 4 2 1 0 1 1 1 2 5 6 6 5 6 7
9 10 10 9 9 9 9 9 10 10 10 9 9 9 11 11 10 9 9 7 7 7 9 8 7 6 5 5 5 4 4 3 2 1 2 3 4 5 6 8 8 8 8
10 10 11 11 11 12 11 11 12 11 10 9 9 9 10 11 11 10 9 9 7 7 7 7 6 5 5 5 4 3 3 2 1 2 3 4 5 6 7 9 10 11 10
11 12 12 12 12 13 13 13 13 12 11 11 10 10 9 8 8 10 9 9 7 7 8 7 7 6 5 5 3 3 2 1 1 3 4 6 6 6 7 9 10 12 11
11 12 13 13 13 13 13 13 13 13 13 13 12 12 11 11 12 12 11 9 8 8 8 8 7 6 5 4 3 2 2 1 3 4 4 6 6 6 7 8 9 11 13
11 12 12 12 12 13 13 14 14 14 14 13 12 11 13 13 12 11 11 10 9 9 8 8 7 7 6 4 2 2 2 2 2 4 5 7 7 7 7 7 8 9 11
10 10 11 11 12 13 13 13 14 14 14 14 14 14 13 13 12 11 11 10 9 8 8 7 7 6 5 4 3 3 2 3 4 5 6 7 7 8 8 8 8 9 10
10 10 11 11 12 12 12 13 13 14 14 14 14 14 13 13 13 12 11 10 9 8 7 7 6 5 4 3 2 2 3 4 6 6 7 8 7 8 9 8 9 9 9
10 10 10 10 11 11 12 12 13 13 13 13 14 14 13 13 12 11 10 9 8 7 6 5 5 4 3 2 2 3 4 6 6 7 8 9 9 9 9 9 10 9 9
10 10 10 10 10 10 11 12 12 12 12 13 13 13 12 12 11 10 8 7 6 6 5 4 3 2 2 3 4 5 6 7 7 8 8 9 9 9 10 9 10 10 11
10 10 10 9 10 10 11 11 11 11 11 12 12 12 10 10 9 8 7 6 5 4 3 3 2 1 2 6 8 8 8 8 9 8 8 8 8 10 10 10 12 12 11
11 11 10 10 10 10 10 10 10 10 10 11 10 9 8 8 7 6 5 5 4 3 3 3 3 3 5 7 8 10 10 9 9 9 9 9 8 7 10 13 14 16 15
11 11 10 9 9 9 10 10 10 10 10 10 9 8 7 6 6 5 5 4 4 4 3 3 3 3 6 5 7 10 12 10 9 10 10 9 8 10 10 12 16 17 16
10 10 9 9 9 9 10 10 10 9 9 8 7 7 6 6 5 5 5 4 3 3 3 3 4 3 5 5 7 13 12 9 9 10 10 10 10 8 10 14 15 15 14
9 9 9 10 10 10 9 10 9 8 8 7 6 6 5 5 5 5 5 4 3 3 2 3 3 4 3 4 6 12 10 7 10 10 9 10 10 8 11 14 14 14 13
9 9 10 10 10 8 8 9 8 8 7 7 6 6 5 5 5 5 4 3 2 2 2 3 3 4 4 2 3 10 9 8 9 9 9 7 6 11 14 13 13 13 13
10 10 10 9 8 7 7 8 8 7 7 6 6 6 5 5 5 4 2 1 2 2 3 3 3 3 4 1 0 6 9 9 9 8 8 6 9 13 15 14 11 11 14
10 10 9 8 7 6 7 8 7 7 6 6 6 5 4 3 3 2 1 1 3 3 2 3 4 3 3 3 4 6 8 10 11 9 8 8 13 16 17 12 10 14 14
10 9 9 8 6 5 6 7 6 5 5 5 5 4 3 2 1 1 2 2 3 4 4 4 4 5 5 3 2 6 9 10 10 8 10 13 15 15 11 8 12 11 7
9 9 8 8 7 6 5 5 5 4 4 4 4 3 2 1 0 2 3 4 4 5 5 5 6 6 5 6 7 8 8 8 8 8 9 11 10 9 8 9 7 6 7
8 7 7 8 7 6 5 5 4 3 3 3 2 1 0 2 2 2 3 5 6 6 7 7 7 7 7 8 11 9 8 9 9 11 8 7 8 8 9 9 9 8 8
8 8 8 8 7 6 6 5 4 3 2 2 1 1 1 2 3 3 1 4 2 3 1 3 6 6 6 9 10 11 11 11 12 10 6 7 7 8 8 9 9 9 8
Wind_Direction
259 241 221 216 207 200 197 195 194 186 182 177 171 159 147 135 117 89 70 48 146 156 139 130 125 129 118 116 114 102 98 77 328 257 236 222 233 255 236 251 252 161 264
292 283 247 220 213 205 198 193 190 184 182 175 164 149 141 136 126 123 133 146 148 138 130 137 137 128 120 117 111 111 141 132 282 280 269 246 212 205 216 224 226 254 266
321 316 272 241 221 208 198 191 186 179 172 154 141 132 127 128 150 156 150 140 139 135 129 132 127 122 121 118 112 136 169 176 177 294 284 282 285 217 189 222 240 248 274
352 0 2 360 223 204 187 178 170 162 157 154 154 154 156 158 160 145 126 120 117 113 114 114 109 104 106 110 107 95 120 174 185 177 303 326 334 300 275 209 220 235 256
21 33 37 46 57 88 132 142 144 147 152 155 155 155 148 133 125 119 120 113 102 99 102 100 99 98 97 99 102 100 90 101 319 273 235 246 247 260 280 288 281 260 256
43 48 53 59 63 72 88 105 116 120 129 132 136 139 135 132 132 130 127 114 103 97 96 98 98 101 102 105 105 103 95 68 46 310 282 276 281 286 289 288 284 283 282
49 52 55 61 67 72 80 89 96 95 95 98 101 110 122 129 130 129 123 118 110 104 101 101 102 102 102 104 107 111 105 117 196 271 291 298 295 300 297 293 293 294 291
52 52 54 59 63 68 74 80 84 84 84 85 87 90 99 103 106 110 114 112 109 108 109 108 105 105 110 110 110 119 115 102 278 293 306 294 288 302 296 296 298 295 291
55 53 53 54 58 63 66 74 79 78 79 82 85 86 88 94 101 105 104 104 110 113 111 109 106 103 99 99 114 96 77 13 298 296 291 296 303 292 296 294 291 294 295
62 58 56 59 62 66 70 72 76 80 81 83 85 88 90 95 99 100 100 102 103 104 108 103 102 100 100 101 100 112 59 333 326 319 318 309 306 312 294 289 289 287 288
69 65 63 65 70 71 74 77 79 82 83 84 87 90 93 96 97 97 98 98 98 101 102 104 106 104 100 91 76 46 14 331 329 318 314 308 310 301 305 295 289 287 289
80 76 75 75 75 76 77 79 81 84 86 89 90 90 92 93 92 91 91 93 92 94 98 101 99 94 86 72 50 17 351 334 327 322 315 309 308 305 292 298 298 297 298
93 88 82 78 78 79 81 82 84 87 91 93 93 92 90 89 89 89 87 89 93 95 97 98 97 90 79 60 15 347 334 327 320 316 312 311 307 300 302 302 296 296 294
101 96 89 85 84 84 86 87 86 87 90 92 92 91 90 90 90 89 88 89 92 93 90 87 84 78 54 22 358 338 328 320 315 312 307 303 303 303 306 299 296 298 300
109 104 101 98 95 92 90 90 92 93 94 95 93 93 94 94 93 91 91 89 87 88 88 88 85 53 54 30 0 334 322 320 313 311 308 306 307 298 297 304 309 309 303
117 114 112 110 105 103 102 100 99 99 99 98 97 98 99 98 97 97 98 96 92 84 78 64 51 30 50 45 2 332 323 316 312 314 313 307 291 294 288 284 293 296 294
118 118 116 114 112 112 114 111 109 107 105 106 109 114 114 108 105 102 93 88 84 77 62 45 33 44 74 34 352 336 312 308 314 313 310 310 317 309 313 315 304 293 282
114 115 116 114 112 113 113 113 112 113 116 120 124 120 114 109 102 93 85 76 63 53 45 29 15 6 74 40 347 328 302 307 313 309 307 309 311 325 335 317 305 301 298
108 111 113 115 116 114 116 116 116 118 121 122 120 116 113 107 98 89 80 65 55 41 15 20 357 347 69 62 345 326 313 315 313 309 309 308 310 349 333 311 303 302 302
105 112 114 113 111 113 120 119 118 121 120 120 116 112 101 93 89 85 74 68 45 23 349 11 344 335 350 73 331 324 316 321 316 313 309 304 331 328 317 311 305 303 310
109 113 113 110 110 118 124 124 124 120 118 117 114 107 97 95 94 93 78 41 4 8 346 338 326 322 333 336 48 324 322 327 317 312 312 327 347 321 311 305 297 304 307
111 111 108 106 113 127 131 123 116 116 118 117 113 107 98 95 103 107 77 338 328 311 317 330 326 331 331 337 349 311 301 303 309 311 320 331 327 312 303 301 305 303 299
112 112 112 113 119 126 124 119 123 127 123 117 109 107 105 97 83 304 299 298 308 322 335 341 341 344 346 349 296 297 299 293 302 314 316 308 302 301 300 301 302 302 314
117 120 123 121 116 113 109 111 118 123 125 120 119 123 130 140 116 299 319 334 342 346 346 350 349 348 346 355 352 340 331 327 320 323 314 301 293 302 319 321 326 333 340
124 124 117 111 109 108 103 103 109 123 122 119 119 122 51 21 319 324 6 348 22 20 346 351 351 349 346 0 340 324 328 331 329 321 316 334 345 345 344 342 343 343 344
118 111 105 101 100 98 93 89 95 100 116 132 115 5 341 350 329 336 112 112 44 111 152 331 335 345 2 336 326 322 318 313 310 312 332 344 343 341 338 336 337 340 343